Location: Chasnay
(47.2455°N, 3.1843°E)
Time: 21:24:43
(UTC+00:00)

Daily predictions for brighter satellites

Satellite Brightness Start Highest point End
(mag) Time Altitude Azimuth Time Altitude Azimuth Time Altitude Azimuth
SMAP 3.6 16:26:04 10° SE 16:30:21 38° ENE 16:34:39 10° N
Cosmos 1743 4.3 16:29:03 10° NNE 16:31:34 16° ENE 16:34:04 10° ESE
SL-16 R/B 3.1 16:26:58 10° SSE 16:31:49 30° ESE 16:36:40 10° NE
Cosmos 1536 2.9 16:30:02 10° N 16:33:59 54° ENE 16:37:54 10° SSE
Feng Yun 1-1 Rocket 4.4 16:29:10 10° SE 16:34:16 46° ENE 16:39:27 10° N
CZ-4B R/B 2.7 16:35:27 10° N 16:38:46 41° WNW 16:42:01 10° SW
Cosmos 2237 Rocket 2.2 16:33:25 10° SSW 16:39:07 83° ESE 16:44:50 10° NNE
Lacrosse 5 rocket 2.3 16:36:50 10° W 16:40:51 38° NNW 16:44:41 10° NE
ALOS 3.3 16:38:01 10° S 16:42:33 50° W 16:47:07 10° NNW
Cosmos 2322 Rocket 4.5 16:41:20 10° WNW 16:43:40 12° NNW 16:46:01 10° N
Cosmos 1812 2.8 16:40:47 10° S 16:44:39 84° W 16:48:33 10° N
Cosmos 2219 Rocket 3.4 16:40:36 10° WSW 16:45:51 39° NW 16:51:10 10° NNE
SL-4 R/B 2.4 16:42:20 10° WNW 16:45:53 42° N 16:49:31 11° ENE
Cosmos 1943 Rocket 3.2 16:41:19 10° N 16:45:58 25° NE 16:50:33 10° ESE
Cosmos 1500 3.6 16:42:14 10° NNW 16:45:58 65° W 16:49:40 10° S
Cosmos 2333 Rocket 3.4 16:42:36 10° WSW 16:47:57 39° NW 16:53:22 10° NNE
Okean O Rocket 2.4 16:44:07 10° S 16:48:22 56° W 16:52:41 10° NNW
Abrixas rocket 4.4 16:47:50 10° S 16:49:13 12° SE 16:50:35 10° ESE
USA 267 3.3 16:43:54 10° ESE 16:50:24 71° NNE 16:56:55 10° NW
Radarsat Rocket 4.4 16:48:58 10° S 16:54:57 67° WSW 17:00:46 10° NNW
Envisat 3.5 16:50:52 10° SE 16:55:31 37° ENE 17:00:11 10° N
Cosmos 292 Rocket 3.9 16:51:09 10° NNW 16:56:03 85° WSW 17:00:54 10° SSE
Cosmos 2242 Rocket 3.6 16:52:06 10° S 16:56:39 74° E 17:01:14 10° NNE
Aureole 1 Rocket 2.3 16:54:23 10° S 16:57:21 61° ESE 17:00:45 10° NNE
USA 229 DEB 4.5 16:51:11 10° NW 16:57:40 35° NNE 17:04:23 10° E
Cosmos 1092 Rocket 4.1 16:51:34 10° S 16:57:42 59° E 17:03:48 10° NNE
USA 229 4.5 16:51:17 10° NW 16:57:45 35° NNE 17:04:27 10° E
Okean 1-7 3.6 16:54:23 10° SSE 16:58:24 38° E 17:02:28 10° NNE
Cosmos 2251 Rocket 4.1 16:53:23 10° SW 16:58:35 57° WNW 17:03:48 10° NNE
Cosmos 1908 Rocket 3.5 16:55:01 10° N 16:59:24 72° E 17:03:45 10° SSE
Cosmos 407 Rocket 3.9 16:58:43 10° S 17:03:38 44° ESE 17:08:38 10° NNE
COSMO-SKYMED 1 3.7 17:05:20 14° NE 17:08:05 23° E 17:11:33 10° SSE
Cosmos 1980 4.3 17:05:47 10° SW 17:11:19 56° WNW 17:16:54 10° NNE
YAOGAN 1 3.7 17:09:19 10° ESE 17:12:40 22° ENE 17:16:01 10° NNE
CZ-4 R/B 2.3 17:10:35 10° ESE 17:13:44 24° ENE 17:16:52 10° NNE
Okean-O 2.7 17:09:34 10° SSE 17:13:52 54° ENE 17:18:13 10° N
Cosmos 1441 Rocket 3.0 17:12:19 10° N 17:16:08 80° E 17:19:52 10° SSE
FALCON 9 DEB 3.5 17:14:30 10° WSW 17:17:57 57° NNW 17:19:57 23° NE
H-2A R/B 2.7 17:14:34 10° S 17:18:14 80° WSW 17:21:57 10° NNW
NOAA 12 4.0 17:15:34 10° SSE 17:20:50 71° ENE 17:26:06 10° N
Cosmos 2297 3.8 17:16:50 10° NNW 17:22:34 81° WSW 17:28:13 10° SSE
Cosmos 921 Rocket 3.0 17:19:12 10° NNW 17:23:31 85° WSW 17:27:53 10° SSE
Cosmos 1975 3.2 17:24:06 10° N 17:27:55 41° ENE 17:31:43 10° SSE
SeaSat 1 4.5 17:29:56 11° NNE 17:29:56 11° NNE 17:30:46 10° NNE
Okean 3 4.4 17:26:01 10° SE 17:29:30 26° E 17:29:51 26° E
Cosmos 1666 3.7 17:26:11 10° NNW 17:29:48 48° W 17:33:24 10° S
Cosmos 1428 Rocket 4.4 17:25:06 10° S 17:31:12 66° E 17:37:26 10° NNE
S3M 4.3 17:25:34 10° N 17:31:26 42° ENE 17:37:12 10° SE
Lacrosse 5 3.1 17:33:46 10° S 17:37:51 24° SE 17:38:59 23° ESE
ATLAS 2AS CENTAUR R/B 4.4 17:33:21 10° WNW 17:39:55 27° NNW 17:45:10 14° NNE
YAOGAN 6 2.5 17:37:53 10° SSE 17:41:24 61° ENE 17:44:59 10° N
Cosmos 1553 Rocket 4.0 17:35:51 10° N 17:42:14 65° ENE 17:48:36 10° SSE
Cosmos 2151 Rocket 4.1 17:38:39 10° N 17:42:43 35° ENE 17:46:44 10° SE
STARLINK-60 4.0 17:39:53 10° W 17:43:03 37° NNW 17:43:51 32° NNE
Uosat 12 SS-18 rocket 4.1 17:38:54 10° NNW 17:43:44 61° NE 17:46:22 23° ESE
Cosmos 1867 3.7 17:40:40 10° NW 17:46:10 78° SW 17:51:35 10° SSE
STARLINK-48 4.4 17:43:36 10° SSW 17:47:05 32° SE 17:47:34 31° ESE
Meteor 2-9 Rocket 4.2 17:42:58 10° N 17:48:49 63° ENE 17:54:31 10° SSE
CZ-4C R/B 3.0 17:45:00 10° SSE 17:49:07 26° ESE 17:49:23 26° ESE
Cosmos 489 Rocket 4.4 17:43:16 10° NNW 17:49:41 83° ENE 17:56:03 10° SSE
STARLINK-52 3.8 17:47:20 10° W 17:50:44 46° NNW 17:51:25 40° NNE
Cosmos 2026 Rocket 4.0 17:45:57 10° SSW 17:52:00 79° W 17:58:08 10° N
STARLINK-67 3.6 17:50:02 10° NW 17:52:00 36° NNW 17:52:00 36° NNW
NOAA 11 4.4 17:47:35 10° SE 17:52:45 45° ENE 17:57:58 10° N
Cosmos 1782 Rocket 4.3 17:50:21 10° NNW 17:54:35 53° W 17:58:48 10° S
SKYMED 2 3.4 17:54:00 25° NNE 17:56:26 70° E 18:00:46 10° S
Cosmos 1943 3.9 17:51:49 10° SSE 17:56:42 31° ESE 17:56:43 31° ESE
ATLAS 5 CENTAUR R/B 2.4 17:56:30 10° W 17:58:07 26° NW 17:58:07 26° NW
USA 215 3.5 17:54:37 25° NE 17:58:38 65° NNW 18:05:05 10° WSW
STARLINK-29 3.9 17:55:33 10° W 17:58:55 41° NNW 17:59:15 39° N
Cosmos 1190 Rocket 4.2 17:55:55 10° SSW 18:01:06 71° WNW 18:04:55 19° NNE
Cosmos 676 Rocket 3.8 17:58:41 10° SSW 18:03:51 77° ESE 18:06:19 32° NNE
Cosmos 1656 Rocket 4.3 18:01:33 10° NNW 18:06:00 35° NE 18:06:00 35° NE
Cosmos 1743 3.9 18:03:54 10° NNW 18:07:35 43° W 18:11:17 10° SSW
Meteor 1-18 Rocket 4.3 18:01:55 10° SSW 18:07:37 77° WNW 18:13:15 10° N
Cosmos 2369 Rocket 2.0 18:02:22 10° NNW 18:08:01 73° ENE 18:13:17 12° SE
BREEZE-M R/B 2.3 18:03:20 10° WNW 18:08:03 84° SSW 18:08:07 83° S
Okean 2 Rocket 3.1 18:04:56 10° N 18:09:27 85° W 18:13:58 10° S
Cosmos 1954 Rocket 3.8 18:04:46 10° SSW 18:09:56 81° ESE 18:12:08 36° NNE
Cosmos 2221 Rocket 3.6 18:10:21 10° SSW 18:14:49 81° W 18:16:58 30° N
SL-16 R/B 3.0 18:10:10 10° SW 18:15:40 49° WNW 18:19:41 18° NNE
Cosmos 2315 Rocket 4.2 18:12:16 10° N 18:18:22 46° ENE 18:18:41 46° E
Cosmos 883 Rocket 4.5 18:13:09 10° N 18:19:25 58° ENE 18:25:34 10° SSE
IRIDIUM 104 4.2 18:14:18 10° S 18:19:27 65° E 18:20:58 44° NNE
USA 116 4.2 18:17:14 34° NNE 18:19:33 77° ESE 18:24:28 10° S
Lacrosse 5 rocket 3.1 18:17:46 10° NW 18:20:34 20° NNW 18:20:34 20° NNW
Cosmos 1603 3.6 18:17:12 10° SSW 18:22:50 65° ESE 18:23:46 56° ENE
Cosmos 2237 Rocket 4.2 18:19:35 10° W 18:23:54 22° NW 18:28:14 10° N
Abrixas rocket 4.1 18:21:34 10° WSW 18:23:04 26° SW 18:23:04 26° SW
STARLINK-43 3.9 18:21:03 10° WSW 18:24:11 57° W 18:24:11 57° W
SL-4 R/B 2.5 18:22:02 10° WNW 18:25:07 52° NW 18:25:07 52° NW
IRIDIUM 114 4.1 18:23:23 10° S 18:28:35 78° E 18:30:06 47° NNE
Cosmos 1943 Rocket 2.5 18:24:37 10° NNW 18:30:13 66° WSW 18:35:44 10° SSE
Cosmos 1140 Rocket 4.2 18:26:01 10° SW 18:31:00 50° WNW 18:33:39 26° N
Meteor 2-8 Rocket 4.3 18:27:27 10° N 18:33:30 64° ENE 18:34:17 58° ESE
USA 267 4.2 18:27:28 10° SSE 18:33:39 44° SW 18:39:51 10° WNW
Cosmos 1241 Rocket 4.5 18:28:14 10° SW 18:34:36 80° NW 18:36:39 46° NNE
IRIDIUM 103 4.2 18:32:31 10° S 18:37:44 88° W 18:39:16 48° N
NOSS 3-1 (C) 4.0 18:31:00 10° NW 18:38:29 86° NE 18:43:01 31° SE
Cosmos 468 Rocket 4.1 18:37:03 10° NNW 18:41:23 62° N 18:41:23 62° N
CSL-04 Rocket 4.1 18:39:01 10° S 18:44:12 57° WSW 18:49:28 10° NNW
COSMO-SKYMED 1 3.8 18:42:33 26° NNW 18:44:22 39° WNW 18:48:23 10° SW
Meteor 2-4 Rocket 3.8 18:39:01 10° SSW 18:44:53 78° WNW 18:47:10 38° N
Cosmos 1300 Rocket 4.4 18:41:28 10° NNW 18:45:38 48° W 18:49:46 10° SSW
Cosmos 1655 Rocket 4.3 18:40:28 10° SSW 18:46:43 64° WNW 18:52:57 10° N
YAOGAN 1 3.7 18:44:25 10° S 18:48:31 42° W 18:52:39 10° NNW
CZ-4 R/B 3.2 18:45:16 10° SSW 18:48:40 29° W 18:52:05 10° NW
USA 229 DEB 3.8 18:42:06 10° NW 18:49:22 82° SW 18:52:31 39° SSE
USA 229 3.8 18:42:12 10° NW 18:49:27 82° SW 18:52:32 40° SSE
Gbstr 26 Del rocket 4.0 18:42:44 10° SW 18:49:19 60° SSE 18:49:19 60° SSE
NOSS 3-1 (A) 3.9 18:47:27 10° NW 18:54:55 78° NE 18:56:30 61° ESE
Cosmos 2344 4.3 18:48:31 10° NW 18:58:08 84° NE 19:05:28 31° SE
Lacrosse 5 3.3 19:15:17 10° WSW 19:18:12 35° WSW 19:18:12 35° WSW
ATLAS 2AS CENTAUR R/B 4.4 19:27:17 10° NW 19:32:36 25° N 19:32:36 25° N
CZ-4C R/B 3.6 19:31:59 10° WSW 19:34:37 31° WSW 19:34:37 31° WSW
USA 215 4.2 19:41:58 38° NNW 19:41:58 38° NNW 19:47:02 10° WNW
